This is the latest recevied weather packets stored in our database for station/object KC3ROS. If no packets are shown the sender has not sent any weather packets the latest 10 day(s).
| Time | Temp. | Humidity | Pressure | Rain* | Wind** | Luminosity | Snow |
|---|---|---|---|---|---|---|---|
| 1777478490 | 15° C | 99% | 1007.1 hPa | 0 mm | - | 84 W/m² | - |
| 1777478187 | 15.56° C | 99% | 1007.3 hPa | 0 mm | - | 115 W/m² | - |
| 1777477883 | 14.44° C | 99% | 1007.1 hPa | 0 mm | - | 274 W/m² | - |
| 1777477579 | 14.44° C | 99% | 1007.1 hPa | 0 mm | - | 235 W/m² | - |
| 1777477275 | 13.89° C | 99% | 1007.2 hPa | 0 mm | - | 216 W/m² | - |
| 1777476972 | 13.89° C | 99% | 1007.4 hPa | 0 mm | - | 235 W/m² | - |
| 1777476670 | 13.89° C | 99% | 1007.4 hPa | 0 mm | - | 147 W/m² | - |
| 1777476366 | 13.33° C | 99% | 1007.6 hPa | 0 mm | - | 134 W/m² | - |
| 1777476063 | 13.33° C | 99% | 1007.7 hPa | 0 mm | - | 90 W/m² | - |
| 1777475758 | 13.33° C | 99% | 1007.9 hPa | 0 mm | - | 87 W/m² | - |
| 1777475455 | 13.33° C | 99% | 1007.9 hPa | 0 mm | - | 76 W/m² | - |
| 1777475150 | 13.33° C | 99% | 1008 hPa | 0 mm | - | 65 W/m² | - |
| 1777474847 | 13.33° C | 99% | 1007.9 hPa | 0 mm | - | 91 W/m² | - |
| 1777474542 | 13.33° C | 99% | 1008 hPa | 0 mm | - | 78 W/m² | - |
| 1777474239 | 12.78° C | 99% | 1008 hPa | 0 mm | - | 104 W/m² | - |
| 1777473936 | 12.78° C | 99% | 1008.1 hPa | 0 mm | - | 110 W/m² | - |
| 1777473634 | 12.78° C | 99% | 1008.1 hPa | 0 mm | - | 109 W/m² | - |
| 1777473324 | 12.78° C | 99% | 1008.2 hPa | 0 mm | - | 89 W/m² | - |
| 1777473020 | 12.78° C | 99% | 1008 hPa | 0 mm | - | 63 W/m² | - |
| 1777472717 | 12.78° C | 99% | 1008.4 hPa | 0 mm | - | 68 W/m² | - |
| 1777472413 | 12.22° C | 99% | 1008.1 hPa | 0 mm | - | 68 W/m² | - |
| 1777472111 | 12.78° C | 99% | 1008.2 hPa | 0 mm | - | 44 W/m² | - |
| 1777471806 | 12.22° C | 99% | 1007.9 hPa | 0 mm | - | 36 W/m² | - |
| 1777471503 | 12.22° C | 99% | 1008.2 hPa | 0 mm | - | 34 W/m² | - |
| 1777471199 | 12.22° C | 99% | 1008.4 hPa | 0 mm | - | 30 W/m² | - |
* Rain latest hour (hover to see other rain measurements)
** Current wind speed in m/s (hover to see current wind gust speed)